Location: Baia Mare
(47.6567°N, 23.5850°E)
Time: 13:32:35
(UTC+03:00)

ISS - Pass Details

Date: 18 July 2019
Orbit: 409 x 418 km, 51.6° (Epoch: 21 July)

Event Time Altitude Azimuth Distance (km) Brightness Sun altitude
Rises 02:30:34 0° 289° (WNW) 2,349 0.1 -20.0°
Reaches altitude 10° 02:32:42 10° 296° (WNW) 1,484 -0.9 -19.9°
Maximum altitude 02:35:57 47° 12° (NNE) 552 -2.8 -19.7°
Drops below altitude 10° 02:39:10 10° 88° (E) 1,477 -0.8 -19.6°
Sets 02:41:18 0° 94° (E) 2,336 0.2 -19.5°
